Location: Banff
(51.1667°N, 115.5667°W)
Time: 15:28:29
(UTC+00:00)

Altair - Pass Details

Date: 05 December 2020
Orbit: 1501 x 1682 km, 47.2° (Epoch: 15 January)

Event Time Altitude Azimuth Distance (km) Brightness Sun altitude
Rises 01:59:07 0° 212° (SSW) 4,772 10.7 -21.3°
Reaches altitude 10° 02:02:33 10° 204° (SSW) 3,763 9.9 -21.8°
Maximum altitude 02:10:51 36° 143° (SE) 2,266 8.1 -23.1°
Enters shadow 02:13:20 31° 114° (ESE) 2,428 8.1 -23.5°
